Meteo Giornale » Osservazioni meteo Italia » Monte Terminillo

ore: 14:55 - Osservazioni Meteo Monte Terminillo
Lat. 42° 28' N Lon. 12° 59' E Alt. 1874 metri s.l.m.

sereno Europe/Rome

2 °C

Sereno

Temp. 24 Ore

-1 °C

2 °C

Sud-Est

35.2 Km/h

Dew point 1 °C

Umidità 93 %

Visibilità  0 Km

Il sole sorge alle ore 06:45

Il sole tramonta alle ore 17:55

Data e Ora Cielo e Fenomeni T °C DP °C Um. % Pres. hPa Vis. km Vento km/h
Oggi h: 14:55 sereno Sereno 2 1 93 1010 0 SE 35.2
Oggi h: 13:55 sereno Sereno 2 1 93 1010 0 S/SO 22.2
Oggi h: 12:55 sereno Sereno 2 1 93 1011 0 S/SE 31.5
Oggi h: 11:55 sereno Sereno 2 1 93 1011 0 S/SE 27.8
Oggi h: 10:55 sereno Sereno 1 1 100 1011 0 S 31.5
Oggi h: 09:55 sereno Sereno 1 1 100 1011 0 S 22.2
Oggi h: 08:55 sereno Sereno 1 0 93 1010 0 S 22.2
Oggi h: 07:55 sereno Sereno 1 0 93 1010 0 S/SO 27.8
Oggi h: 06:55 sereno Sereno 1 1 100 1009 0 S/SO 22.2
Oggi h: 05:55 sereno Sereno 1 1 100 1009 0 S/SO 22.2
Oggi h: 04:55 sereno Sereno 1 1 100 1009 0 S/SO 22.2
Oggi h: 03:55 sereno Sereno 1 1 100 1009 0 S/SO 24
Oggi h: 02:55 sereno Sereno 1 1 100 1009 0 S/SO 31.5
Oggi h: 02:16 sereno Sereno 1 1 100 1009 0 S/SO 35.2
Oggi h: 01:55 sereno Sereno 1 1 100 1009 0 S/SO 33.3
Oggi h: 00:55 sereno Sereno 1 1 100 1009 0 S/SO 33.3
Ieri h: 23:55 sereno Sereno 1 1 100 1009 0 S/SO 33.3
Ieri h: 22:55 sereno Sereno 1 1 100 1009 0 S/SO 33.3
Ieri h: 22:35 sereno Sereno 1 1 100 1009 0 S/SO 33.3
Ieri h: 21:55 sereno Sereno 1 1 100 1010 0 S/SO 27.8
Ieri h: 21:16 sereno Sereno 1 1 100 1009 0 S/SO 33.3
Ieri h: 20:55 sereno Sereno 1 1 100 1009 0 S/SO 33.3
Ieri h: 19:55 sereno Sereno 1 0 93 1009 0 S/SO 27.8
Ieri h: 18:55 sereno Sereno 1 0 93 1009 0 S/SO 24
Ieri h: 17:55 sereno Sereno 0 -0 100 1009 0 S/SO 20.3
Ieri h: 16:55 sereno Sereno 0 -1 92 1008 0 S 22.2
Ieri h: 15:55 sereno Sereno -0 -2 86 1008 0 S 18.5
Ieri h: 14:55 sereno Sereno -1 -2 92 1007 0 S 22.2